Wilmington, NC

10:47 AM EST on February 26, 2017 (GMT -0500)
Wilmington International

Weather History for KILM - July, 2013

Change the Weather History Date:

Saturday, July 20, 2013

  Actual Average Record
Temperature  
Mean Temperature 82 °F 81 °F  
Max Temperature 89 °F 90 °F 99 °F (1942)
Min Temperature 75 °F 73 °F 63 °F (1910)
Degree Days  
Heating Degree Days 0 0  
Month to date heating degree days 0 0  
Since 1 June heating degree days 0 2  
Since 1 July heating degree days 0 0  
Cooling Degree Days 17 16  
Month to date cooling degree days 304 320  
Year to date cooling degree days 910 986  
Since 1 June cooling degree days 684 705  
Growing Degree Days 32 (Base 50)    
Moisture  
Dew Point 72 °F    
Average Humidity 73    
Maximum Humidity 85    
Minimum Humidity 61    
Precipitation  
Precipitation 0.23 in 0.27 in 2.35 in (1915)
Month to date precipitation 4.37 4.64  
Year to date precipitation 32.54 28.72  
Sea Level Pressure  
Sea Level Pressure 30.05 in    
Wind  
Wind Speed 11 mph (SW)    
Max Wind Speed 30 mph    
Max Gust Speed 38 mph    
Visibility 9 miles    
Events Rain    
T = Trace of Precipitation, MM = Missing Value Source: NWS Daily Summary

Daily Weather History Graph

Daily Weather History Graph

Search for Another Location

Airport or City:

Trip Planner

Search our weather history database for the weather conditions in past years. The results will help you decide how hot, cold, wet, or windy it might be!

Date:

Astronomy

Jul. 20, 2013 Rise Set
Actual Time 6:14 AM EDT 8:21 PM EDT
Civil Twilight 5:45 AM EDT 8:49 PM EDT
Nautical Twilight 5:11 AM EDT 9:24 PM EDT
Astronomical Twilight 4:34 AM EDT 10:01 PM EDT
Moon 6:23 PM EDT (7/20) 3:51 AM EDT (7/20)
Length of Visible Light 15h 03m
Length of Day
14h 07m
Waxing Gibbous, 93% of the Moon is Illuminated
Jul 20
Waxing Gibbous
Jul 22
Full
Jul 29
Last Quarter
Aug 6
New
Aug 14
First Quarter

Hourly Weather History & Observations

Time (EDT) Temp. Heat Index Dew Point Humidity Pressure Visibility Wind Dir Wind Speed Gust Speed Precip Events Conditions
12:53 AM 79.0 °F - 73.0 °F 82% 30.07 in 10.0 mi SSW 11.5 mph - N/A   Clear
1:53 AM 79.0 °F - 72.0 °F 79% 30.07 in 10.0 mi SSW 9.2 mph - N/A   Mostly Cloudy
2:53 AM 78.1 °F - 72.0 °F 81% 30.06 in 10.0 mi SSW 6.9 mph - N/A   Clear
3:53 AM 78.1 °F - 73.0 °F 84% 30.05 in 10.0 mi SW 6.9 mph - N/A   Clear
4:53 AM 78.1 °F - 72.0 °F 81% 30.06 in 10.0 mi SW 11.5 mph - N/A   Partly Cloudy
5:53 AM 78.1 °F - 71.1 °F 79% 30.06 in 10.0 mi SW 11.5 mph - N/A   Clear
6:53 AM 78.1 °F - 71.1 °F 79% 30.06 in 10.0 mi WSW 6.9 mph - N/A   Clear
7:53 AM 80.1 °F 83.8 °F 72.0 °F 76% 30.07 in 10.0 mi SW 8.1 mph - N/A   Clear
8:53 AM 82.0 °F 86.7 °F 72.0 °F 71% 30.09 in 10.0 mi SW 11.5 mph - N/A   Clear
9:53 AM 84.0 °F 89.0 °F 71.1 °F 65% 30.08 in 10.0 mi SW 10.4 mph - N/A   Partly Cloudy
10:53 AM 86.0 °F 91.5 °F 71.1 °F 61% 30.08 in 10.0 mi WSW 10.4 mph 17.3 mph N/A   Overcast
11:53 AM 84.9 °F 89.4 °F 70.0 °F 61% 30.07 in 10.0 mi SSW 10.4 mph - N/A   Mostly Cloudy
12:53 PM 88.0 °F 95.6 °F 73.0 °F 61% 30.06 in 10.0 mi SW 11.5 mph - 0.02 in   Mostly Cloudy
1:53 PM 88.0 °F 96.5 °F 73.9 °F 63% 30.04 in 10.0 mi WSW 12.7 mph 19.6 mph N/A   Partly Cloudy
2:36 PM 77.0 °F - 71.6 °F 83% 30.05 in 1.2 mi WSW 23.0 mph 38.0 mph 0.00 in Rain Heavy Rain
2:45 PM 75.2 °F - 71.6 °F 89% 30.04 in 0.8 mi West 10.4 mph - 0.16 in Rain Heavy Rain
2:51 PM 75.2 °F - 73.4 °F 94% 30.04 in 1.5 mi WSW 10.4 mph - 0.20 in Rain Heavy Rain
2:53 PM 75.0 °F - 72.0 °F 90% 30.04 in 2.5 mi WSW 8.1 mph - 0.20 in Rain Rain
3:01 PM 75.2 °F - 71.6 °F 89% 30.03 in 5.0 mi SSW 6.9 mph - 0.01 in Rain Light Rain
3:53 PM 78.1 °F - 73.9 °F 87% 30.01 in 10.0 mi SSW 4.6 mph - 0.01 in   Clear
4:53 PM 82.9 °F 87.5 °F 71.1 °F 67% 30.00 in 10.0 mi SSW 13.8 mph 18.4 mph N/A   Clear
5:53 PM 84.0 °F 88.4 °F 70.0 °F 63% 29.99 in 10.0 mi SSW 17.3 mph 23.0 mph N/A   Clear
6:53 PM 82.9 °F 88.0 °F 72.0 °F 69% 30.01 in 10.0 mi SW 18.4 mph 24.2 mph N/A   Scattered Clouds
7:53 PM 80.1 °F 83.6 °F 71.1 °F 74% 30.01 in 10.0 mi SW 12.7 mph - N/A   Clear
8:53 PM 79.0 °F - 71.1 °F 77% 30.02 in 10.0 mi SSW 8.1 mph - N/A   Clear
9:53 PM 79.0 °F - 70.0 °F 74% 30.04 in 10.0 mi SSW 8.1 mph - N/A   Overcast
10:53 PM 79.0 °F - 72.0 °F 79% 30.04 in 10.0 mi SSW 11.5 mph 20.7 mph N/A   Clear
11:53 PM 78.1 °F - 72.0 °F 81% 30.04 in 10.0 mi SW 8.1 mph - N/A   Clear